CW3590 Weather Reports


Display with metric or nautical units.
time (UTC)temp
F
wind
direction
speed
MPH
gust
MPH
rain 1hr
in
rain 24hr
in
rain mn
in
humidity
%
barometer
mb
20260831042006 82 0 0.0 0.0 0.00 0.00 0.00 65 1013.7
20260831041006 83 0 0.0 1.0 0.00 0.00 0.00 65 1013.6
20260831040006 83 0 0.0 1.0 0.00 0.00 0.00 63 1013.6
20260831035006 83 0 0.0 0.0 0.00 0.00 0.00 63 1013.5
20260831034005 84 0 0.0 0.0 0.00 0.00 0.00 62 1013.4
20260831033006 84 0 0.0 0.0 0.00 0.00 0.00 60 1013.1
20260831032005 84 0 0.0 0.0 0.00 0.00 0.00 61 1013.1
20260831031007 85 0 0.0 0.0 0.00 0.00 0.00 60 1013.0
20260831030007 85 0 0.0 0.0 0.00 0.00 0.00 60 1012.8
20260831025005 86 0 0.0 1.0 0.00 0.00 0.00 60 1012.8
20260831023005 86 0 0.0 0.0 0.00 0.00 0.00 57 1012.6
20260831021006 87 0 0.0 1.0 0.00 0.00 0.00 56 1012.3
20260831020005 88 0 0.0 2.0 0.00 0.00 0.00 55 1012.3
20260831015006 88 0 0.0 0.0 0.00 0.00 0.00 53 1012.0
20260831014005 89 0 0.0 0.0 0.00 0.00 0.00 52 1011.9
20260831012005 90 0 0.0 0.0 0.00 0.00 0.00 51 1011.9
20260831005006 90 0 0.0 0.0 0.00 0.00 0.00 50 1011.7
20260831004005 91 0 0.0 0.0 0.00 0.00 0.00 49 1011.8
20260831003006 92 0 0.0 0.0 0.00 0.00 0.00 47 1011.9
20260831002005 92 0 0.0 0.0 0.00 0.00 0.00 49 1011.8
20260831001005 93 0 0.0 0.0 0.00 0.00 0.00 47 1011.7
20260831000005 93 0 0.0 2.0 0.00 0.00 0.00 47 1011.8
20260830235006 94 0 0.0 2.0 0.00 0.00 0.00 45 1011.8
20260830234005 95 177 0.0 2.0 0.00 0.00 0.00 43 1011.8
20260830233005 96 61 1.0 3.0 0.00 0.00 0.00 41 1011.8
20260830231005 96 80 1.0 3.0 0.00 0.00 0.00 42 1011.9
20260830224006 94 0 0.0 0.0 0.00 0.00 0.00 47 1011.9
20260830223005 94 0 0.0 0.0 0.00 0.00 0.00 45 1012.0
20260830221005 95 32 2.0 2.0 0.00 0.00 0.00 41 1012.0
20260830220005 97 45 2.0 6.0 0.00 0.00 0.00 39 1012.1
20260830215005 97 68 2.0 6.0 0.00 0.00 0.00 39 1012.2
20260830214005 99 37 2.0 5.0 0.00 0.00 0.00 41 1012.3
20260830213005 98 77 1.0 4.0 0.00 0.00 0.00 38 1012.4
20260830211005 94 0 0.0 1.0 0.00 0.00 0.00 53 1012.7
20260830210005 94 131 1.0 1.0 0.00 0.00 0.00 44 1012.7
20260830205005 94 329 1.0 3.0 0.00 0.00 0.00 43 1012.9
20260830204005 96 279 1.0 3.0 0.00 0.00 0.00 42 1013.1
20260830202006 94 136 1.0 3.0 0.00 0.00 0.00 47 1013.5
20260830201005 95 116 1.0 2.0 0.00 0.00 0.00 44 1013.6
20260830200005 96 112 2.0 5.0 0.00 0.00 0.00 42 1013.7
20260830195005 98 221 1.0 3.0 0.00 0.00 0.00 39 1013.9
20260830194005 97 161 2.0 3.0 0.00 0.00 0.00 37 1014.0
20260830193005 97 156 2.0 4.0 0.00 0.00 0.00 42 1014.0
20260830191005 96 228 2.0 8.0 0.00 0.00 0.00 42 1014.3
20260830185005 94 179 2.0 5.0 0.00 0.00 0.00 44 1014.7
20260830184005 95 182 3.0 7.0 0.00 0.00 0.00 45 1014.7
20260830183006 95 242 2.0 9.0 0.00 0.00 0.00 47 1014.7
20260830181005 94 264 4.0 10.0 0.00 0.00 0.00 49 1015.1
20260830180004 94 265 3.0 12.0 0.00 0.00 0.00 50 1015.3
20260830175005 93 244 4.0 8.0 0.00 0.00 0.00 51 1015.4
20260830174005 93 269 3.0 11.0 0.00 0.00 0.00 52 1015.4
20260830173005 92 240 3.0 8.0 0.00 0.00 0.00 52 1015.6
20260830171004 90 236 2.0 6.0 0.00 0.00 0.00 56 1015.9
20260830170004 90 223 3.0 7.0 0.00 0.00 0.00 57 1016.0
20260830165005 90 221 2.0 8.0 0.00 0.00 0.00 57 1016.2
20260830164005 89 162 2.0 7.0 0.00 0.00 0.00 56 1016.3
20260830163005 88 245 3.0 6.0 0.00 0.00 0.00 59 1016.3
20260830162004 88 236 2.0 6.0 0.00 0.00 0.00 59 1016.3
20260830161005 87 237 2.0 7.0 0.00 0.00 0.00 62 1016.3
20260830160005 86 232 2.0 5.0 0.00 0.00 0.00 65 1016.3
20260830154005 85 229 2.0 5.0 0.00 0.00 0.00 67 1016.4
20260830153005 84 210 2.0 6.0 0.00 0.00 0.00 67 1016.3
20260830152005 84 211 3.0 7.0 0.00 0.00 0.00 69 1016.2
20260830151005 83 228 2.0 6.0 0.00 0.00 0.00 71 1016.2
20260830150005 82 253 2.0 7.0 0.00 0.00 0.00 76 1016.2
20260830145005 81 270 2.0 6.0 0.00 0.00 0.00 79 1016.2
20260830144004 81 272 1.0 6.0 0.00 0.00 0.00 81 1016.3
20260830141005 80 228 2.0 5.0 0.00 0.00 0.00 84 1016.3
20260830140005 79 202 1.0 4.0 0.00 0.00 0.00 85 1016.3
20260830134005 78 241 1.0 3.0 0.00 0.00 0.00 87 1016.2
20260830133005 78 189 1.0 4.0 0.00 0.00 0.00 87 1016.2
20260830132005 78 128 1.0 4.0 0.00 0.00 0.00 87 1016.2
20260830131005 78 200 1.0 3.0 0.00 0.00 0.00 86 1016.2
20260830130005 78 209 1.0 2.0 0.00 0.00 0.00 86 1015.9
20260830125005 77 205 1.0 2.0 0.00 0.00 0.00 85 1015.8
20260830124005 77 216 1.0 4.0 0.00 0.00 0.00 85 1015.8
20260830122005 77 0 0.0 2.0 0.00 0.00 0.00 84 1015.5
20260830120005 77 89 1.0 2.0 0.00 0.00 0.00 84 1015.2
20260830114005 77 69 1.0 2.0 0.00 0.00 0.00 83 1015.0
20260830113004 77 64 1.0 2.0 0.00 0.00 0.00 83 1015.0
20260830112005 77 64 0.0 2.0 0.00 0.00 0.00 82 1014.9
20260830111004 77 0 0.0 1.0 0.00 0.00 0.00 81 1014.8
20260830110005 77 0 0.0 0.0 0.00 0.00 0.00 79 1014.8
20260830105005 77 0 0.0 0.0 0.00 0.00 0.00 78 1014.7
20260830104004 77 0 0.0 1.0 0.00 0.00 0.00 78 1014.6
20260830103005 77 0 0.0 0.0 0.00 0.00 0.00 75 1014.5
20260830102004 77 0 0.0 0.0 0.00 0.00 0.00 74 1014.4
20260830101004 77 0 0.0 0.0 0.00 0.00 0.00 74 1014.3
20260830100005 78 0 0.0 0.0 0.00 0.00 0.00 74 1014.3
20260830095004 78 0 0.0 0.0 0.00 0.00 0.00 73 1014.1
20260830094004 78 0 0.0 0.0 0.00 0.00 0.00 73 1014.1
20260830092004 78 0 0.0 0.0 0.00 0.00 0.00 72 1014.1
20260830091004 78 0 0.0 0.0 0.00 0.00 0.00 72 1014.1
20260830090005 78 63 0.0 1.0 0.00 0.00 0.00 71 1014.0
20260830085004 79 0 0.0 1.0 0.00 0.00 0.00 74 1014.0
20260830084004 79 0 0.0 1.0 0.00 0.00 0.00 70 1014.0
20260830083004 79 63 1.0 2.0 0.00 0.00 0.00 70 1014.0
20260830082004 79 63 1.0 1.0 0.00 0.00 0.00 70 1014.1
20260830081004 80 63 1.0 2.0 0.00 0.00 0.00 69 1014.1
20260830075004 80 0 0.0 1.0 0.00 0.00 0.00 68 1014.1
20260830074004 80 0 0.0 1.0 0.00 0.00 0.00 68 1014.2
20260830073004 80 0 0.0 1.0 0.00 0.00 0.00 67 1014.1
20260830072004 80 0 0.0 0.0 0.00 0.00 0.00 66 1014.1
20260830071004 80 0 0.0 0.0 0.00 0.00 0.00 65 1014.2
20260830070005 80 0 0.0 1.0 0.00 0.00 0.00 66 1014.3
20260830065004 81 0 0.0 1.0 0.00 0.00 0.00 66 1014.3
20260830064005 81 0 0.0 1.0 0.00 0.00 0.00 64 1014.2
20260830062004 81 0 0.0 1.0 0.00 0.00 0.00 64 1014.2
20260830060016 81 0 0.0 0.0 0.00 0.00 0.00 62 1014.1
20260830054016 82 0 0.0 0.0 0.00 0.00 0.00 62 1014.2
20260830053016 82 0 0.0 1.0 0.00 0.00 0.00 61 1014.2
20260830052017 82 0 0.0 1.0 0.00 0.00 0.00 61 1014.1
20260830051016 82 0 0.0 1.0 0.00 0.00 0.00 60 1014.2
20260830045016 82 0 0.0 1.0 0.00 0.00 0.00 59 1014.2
20260830044016 83 0 0.0 1.0 0.00 0.00 0.00 58 1014.2
20260830043016 83 0 0.0 1.0 0.00 0.00 0.00 58 1014.2